Погода в Курске

Хотите узнать прогноз погоды в Курске? Тогда Вам сюда: Погода в Курске

Поиск расширенной информации на нашем сайте:

Полезная информация:

Новости сайта



02.01.2020
Опубликован Долгосрочный прогноз погоды по городам России и ближнего зарубежья на январь 2020 года.
Карты: Прогноз на январь и февраль 2020 года, Сравнение прогнозируемой аномалии приземной температуры воздуха на январь 2020 года по разным моделям.




Погода в Курске - сегодня

Время (UTC), дата Ветер
(°,м/с) 
Видим.   Явления Облачность Т
(°С)
Тd
(°С)
f(%) Тe
(°С)
Pmin
(гПа)
dP
(гПа)
Po
(мм)
O2
(г/м3)
Тmin Tmax R s Состояние
почвы
15 09.08.20 330 (СЗ) 10 км    4/1 600 м средняя 
[Sc|Ac As]
+25.8 +10.5 38 +28  1014  -0.9  739  270           
18 09.08.20 340 (С) 10 км    3/0 средняя 
[Ac trans]
+20.9 +10 50 +22  1014.7  0.2  740  275    +26.1       
21 09.08.20 350 (С) 10 км    1/0 средняя 
[Ac trans]
+20 +11.1 57 +23  1015.1  0.4  740  276           
00 10.08.20 350 (С) 10 км    3/0 средняя 
[Ac trans]
+18.5 +11.8 65 +24  1015.2  740  277           
03 10.08.20 020 (С) 10 км    4/0 средняя 
[Ac trans]
+18 +12.5 70 +24  1015.2  0.1  740  277  +15.9         
06 10.08.20 360 (С) 10 км    3/0 верхняя 
[Cc]
+21.7 +13.5 60 +28  1015.3  0.5  740  274  +15.9        сухая 
09 10.08.20 350 (С) 10 км    8/6 600 м верхняя 
[Cu med, cong|Ci fib]
+23.7 +9.8 41 +25  1014.6  -0.5  740  273           
12 10.08.20 310 (СЗ) 10 км    4/3 1000 м верхняя 
[Cu hum|Ci fib]
+26.6 +7.4 30 +27  1013.5  -0.8  739  270           
15 10.08.20 320 (СЗ) 10 км    6/3 1000 м верхняя 
[Cu med, cong|Ci fib]
+25.4 +8.8 35 +25  1013  -0.6  739  271           
18 10.08.20 340 (С) 10 км    6/0 верхняя 
[Ci fib]
+20.9 +10.5 51 +23  1014.1  0.6  739  275    +26.8       
21 10.08.20 350 (С) 10 км    3/0 верхняя 
[Ci fib]
+19.4 +8.2 48 +21  1014.4  0.1  739  277           
00 11.08.20 360 (С) 10 км    8/6 600 м верхняя 
[Sc|Ci fib]
+18.5 +7.5 49 +20  1014.2  -0.3  739  278           
03 11.08.20 030 (СВ) 10 км    6/0 средняя, верхняя 
[Ac trans|Ci fib]
+16.8 +7.5 54 +18  1014.1  -0.2  739  279  +16.8         
06 11.08.20 340 (С) 10 км    6/0 верхняя 
[Cc]
+22 +9.1 44 +22  1013.5  0.1  739  274  +16.8        сухая 
09 11.08.20 320 (СЗ) 10 км    5/3 600 м верхняя 
[Cu hum|Ci fib]
+25.4 +7.4 32 +25  1012.6  -0.5  738  271           
12 11.08.20 320 (СЗ) 5-12{12}  10 км  гроза без осадков  8/8 600 м кучево-дожд., верхняя 
[Cb cap|Ci fib]
+24.3 +11.1 43 +27  1012  -0.7  738  271           
15 11.08.20 280 (З) 1{12}  10 км  {гроза, ливн. осадки}  8/3 600 м средняя, верхняя 
[Sc|Ac trans|Ci fib]
+20.3 +14.5 69 +29  1011.9  -0.4  738  274      0.5     
18 11.08.20 330 (СЗ) 10 км  {гроза, ливн. осадки}  9/8 600 м верхняя 
[Sc|Ci fib]
+18 +14.1 78 +27  1012.3  0.1  738  276    +27.5  0.5     
21 11.08.20 320 (СЗ) 10 км    9/9 600 м 
[Sc]
+15.4 +13 86 +23  1012.4  -0.2  738  279           
00 12.08.20 350 (С) 10 км    9/9 600 м 
[Sc]
+15.2 +11.4 78 +18  1012.4  737  279           
03 12.08.20 350 (С) 10 км    8/8 600 м верхняя 
[Sc|Ci fib]
+13.9 +9.2 73 +14  1012.7  0.1  738  281  +13.9         
06 12.08.20 350 (С) 10 км    1/0 средняя 
[Ac As]
+16.3 +9.2 63 +17  1012.9  0.5  738  279  +13.6        сухая 
09 12.08.20 340 (С) 10 км    6/6 600 м 
[Sc]
+18.1 +7.3 49 +19  1013  0.2  738  278           
12 12.08.20 320 (СЗ) 10 км    8/8 600 м 
[Sc]
+19.8 +6.2 41 +21  1013  0.1  738  276           
15 12.08.20 320 (СЗ) 10 км    8/4 600 м средняя 
[Sc|Ac As]
+18.7 +6.6 45 +19  1013.4  0.3  738  277           
Время (UTC), дата Ветер
(°,м/с) 
Видим.   Явления Облачность Т
(°С)
Тd
(°С)
f(%) Тe
(°С)
Pmin
(гПа)
dP
(гПа)
Po
(мм)
O2
(г/м3)
Тmin Tmax R s Состояние
почвы

Для получения пояснительной информации подведите курсор к названию столбца.

ПОГОДА в Курске - архив

Всё, что Вы хотите узнать о погоде в Курске - удобно и подробно!

Выберите нужную дату (начиная с 1 января 2019* года) и нажмите кнопку "Найти".
Будут отображены архивные сводки погоды по пункту Курск, начиная с указанной даты.


Отображать данные в формате CSV (для использования в таблицах Excel)


Внимание! Наш архив погоды предназначен исключительно для личного некоммерческого использования в познавательных целях. Если Вам необходимы официальные справки о состоянии погоды (для производственных, юридических, коммерческих и т.п. целей), обращайтесь в органы Росгидромета.

*Примечание: данная дата относится к архиву по метеостанциям СССР (Россия, СНГ, Балтия).
Архив по метеостанциям Зарубежной Европы и Азии (кроме Китая) хранится 10 дней, по другим регионам земного шара (Китай, Африка, Америка, Австралия, Океания) - 1 день.

Курск - район местоположения метеостанции


Название, широта, долгота, высота метеостанции:
Курск 51.8°ш. 36.2°д. 247 м над ур. моря [Российская Федерация]

Дополнительная информация

В oтличие oт бoльшинства пoгoдных сайтoв мы публикуем пoдрoбную метеoинфoрмацию в детальнoм прoфессиoнальнoм фoрмате.

Характеристики температуры и влажнoсти вoздуха измеряются на высoте 2 м в тени вдали oт зданий и деревьев.
Скoрoсть ветра измеряется на высoте 10 м (на урoвне рoста челoвека скoрoсть ветра ниже в 1.5-2 раза). Если метеoстанция нахoдится в гoрoде или в лесу, тo скoрoсть ветра занижена на 2-4 м/с пo сравнению с oткрытым местoм. Скoрoсть ветра над акватoриями крупных рек и oзёр, а также на вершинах хoлмoв на 2-5 м/с выше, чем в oбычных услoвиях.
Атмoсфернoе давление в разных тoчках местнoсти мoжет значительнo oтличаться oт давления на метеoстанции, в зависимoсти oт услoвий рельефа (при пoдъёме на 10 м давление пoнижается примернo на 1 мм рт.ст.).